• In Russia
  • List of Countries
  • For 7 days
  • Water Temperature
  • Satellite Maps
  • Weather Map
  • Weather Widgets
  • user-avatar
    Login

    Hourly Weather Stepanakert

    Today, 27 June, Tuesday

    Time Temperature Precipitation Wind Pressure Humidity
    00:00 +18°C° 0 mm 1 mps 695 mmHg 85%
    01:00 +18°C° 0 mm 1 mps 694 mmHg 85%
    02:00 +16°C° 0 mm 1 mps 694 mmHg 86%
    03:00 +16°C° 0 mm 1 mps 694 mmHg 86%
    04:00 +18°C° 0 mm 1 mps 694 mmHg 83%
    05:00 +20°C° 0 mm 1 mps 694 mmHg 80%
    06:00 +19°C° 0 mm 0 mps 695 mmHg 76%
    07:00 +23°C° 0 mm 1 mps 695 mmHg 69%
    08:00 +24°C° 0 mm 1 mps 695 mmHg 62%
    09:00 +26°C° 0 mm 2 mps 695 mmHg 54%
    10:00 +27°C° 0 mm 2 mps 694 mmHg 51%
    11:00 +29°C° 0 mm 2 mps 694 mmHg 47%
    12:00 +30°C° 0 mm 2 mps 694 mmHg 44%
    13:00 +31°C° 0 mm 2 mps 693 mmHg 43%
    14:00 +31°C° 0 mm 3 mps 693 mmHg 42%
    15:00 +33°C° 0 mm 3 mps 692 mmHg 42%
    16:00 +31°C° 0 mm 2 mps 692 mmHg 44%
    17:00 +30°C° 0 mm 2 mps 692 mmHg 47%
    18:00 +30°C° 0 mm 2 mps 692 mmHg 50%
    19:00 +27°C° 0 mm 2 mps 692 mmHg 58%
    20:00 +24°C° 0 mm 1 mps 691 mmHg 67%
    21:00 +21°C° 0 mm 1 mps 691 mmHg 76%
    22:00 +21°C° 0 mm 1 mps 691 mmHg 78%
    23:00 +20°C° 0 mm 1 mps 691 mmHg 79%

    Tomorrow, 28 June, Wednesday

    Time Temperature Precipitation Wind Pressure Humidity
    00:00 +20°C° 0 mm 1 mps 691 mmHg 81%
    01:00 +19°C° 0 mm 1 mps 691 mmHg 82%
    02:00 +19°C° 0 mm 1 mps 691 mmHg 84%
    03:00 +19°C° 0 mm 1 mps 690 mmHg 85%
    04:00 +20°C° 0 mm 1 mps 691 mmHg 81%
    05:00 +22°C° 0 mm 1 mps 691 mmHg 77%
    06:00 +23°C° 0 mm 1 mps 692 mmHg 73%
    07:00 +25°C° 0 mm 1 mps 692 mmHg 65%
    08:00 +27°C° 0 mm 1 mps 692 mmHg 58%
    09:00 +29°C° 0 mm 2 mps 692 mmHg 50%
    10:00 +30°C° 0 mm 2 mps 692 mmHg 47%
    11:00 +31°C° 0 mm 2 mps 692 mmHg 43%
    12:00 +34°C° 0 mm 3 mps 691 mmHg 40%
    13:00 +34°C° 0.1 mm 3 mps 691 mmHg 40%
    14:00 +34°C° 0.1 mm 3 mps 690 mmHg 39%
    15:00 +35°C° 0.1 mm 3 mps 690 mmHg 39%
    16:00 +34°C° 0.1 mm 3 mps 690 mmHg 42%
    17:00 +32°C° 0.1 mm 2 mps 690 mmHg 45%
    18:00 +31°C° 0.1 mm 2 mps 689 mmHg 48%
    19:00 +29°C° 0.2 mm 2 mps 690 mmHg 54%
    20:00 +26°C° 0.2 mm 2 mps 690 mmHg 60%
    21:00 +23°C° 0.2 mm 1 mps 690 mmHg 67%
    22:00 +23°C° 0 mm 1 mps 690 mmHg 68%
    23:00 +22°C° 0 mm 1 mps 690 mmHg 69%

    Day after tomorrow, 29 June, Thursday

    Time Temperature Precipitation Wind Pressure Humidity
    00:00 +22°C° 0 mm 1 mps 690 mmHg 71%
    01:00 +21°C° 0 mm 1 mps 690 mmHg 73%
    02:00 +21°C° 0 mm 1 mps 690 mmHg 74%
    03:00 +20°C° 0 mm 1 mps 690 mmHg 76%
    04:00 +22°C° 0 mm 1 mps 690 mmHg 72%
    05:00 +23°C° 0 mm 1 mps 691 mmHg 68%
    06:00 +24°C° 0 mm 1 mps 691 mmHg 64%
    07:00 +26°C° 0 mm 1 mps 691 mmHg 57%
    08:00 +28°C° 0 mm 1 mps 691 mmHg 49%
    09:00 +29°C° 0 mm 2 mps 692 mmHg 41%
    10:00 +30°C° 0.1 mm 2 mps 691 mmHg 38%
    11:00 +31°C° 0.1 mm 2 mps 691 mmHg 35%
    12:00 +33°C° 0.1 mm 3 mps 691 mmHg 33%
    13:00 +34°C° 0.2 mm 3 mps 691 mmHg 32%
    14:00 +34°C° 0.2 mm 3 mps 690 mmHg 31%
    15:00 +34°C° 0.2 mm 3 mps 690 mmHg 30%
    16:00 +34°C° 0.1 mm 3 mps 690 mmHg 32%
    17:00 +32°C° 0.1 mm 2 mps 690 mmHg 34%
    18:00 +31°C° 0.1 mm 2 mps 690 mmHg 36%
    19:00 +28°C° 0 mm 2 mps 690 mmHg 41%
    20:00 +25°C° 0 mm 2 mps 690 mmHg 45%
    21:00 +22°C° 0 mm 1 mps 690 mmHg 50%
    22:00 +22°C° 0 mm 1 mps 690 mmHg 49%
    23:00 +22°C° 0 mm 1 mps 690 mmHg 49%

    30 June, Friday

    Time Temperature Precipitation Wind Pressure Humidity
    00:00 +20°C° 0 mm 2 mps 690 mmHg 48%
    01:00 +20°C° 0 mm 2 mps 690 mmHg 48%
    02:00 +20°C° 0 mm 2 mps 690 mmHg 47%
    03:00 +19°C° 0 mm 2 mps 690 mmHg 47%
    04:00 +20°C° 0 mm 2 mps 690 mmHg 46%
    05:00 +21°C° 0 mm 2 mps 691 mmHg 45%
    06:00 +24°C° 0 mm 2 mps 691 mmHg 44%
    07:00 +26°C° 0 mm 2 mps 692 mmHg 37%
    08:00 +28°C° 0 mm 2 mps 692 mmHg 31%
    09:00 +30°C° 0 mm 1 mps 692 mmHg 24%
    10:00 +31°C° 0 mm 2 mps 692 mmHg 23%
    11:00 +32°C° 0 mm 2 mps 692 mmHg 22%
    12:00 +34°C° 0 mm 3 mps 692 mmHg 21%
    13:00 +34°C° 0 mm 3 mps 692 mmHg 21%
    14:00 +34°C° 0 mm 3 mps 691 mmHg 22%
    15:00 +34°C° 0 mm 3 mps 691 mmHg 22%
    16:00 +33°C° 0 mm 4 mps 691 mmHg 25%
    17:00 +33°C° 0 mm 4 mps 692 mmHg 27%
    18:00 +32°C° 0 mm 4 mps 692 mmHg 30%
    19:00 +28°C° 0 mm 3 mps 692 mmHg 36%
    20:00 +25°C° 0 mm 2 mps 692 mmHg 42%
    21:00 +21°C° 0 mm 2 mps 692 mmHg 48%
    22:00 +21°C° 0 mm 2 mps 692 mmHg 47%
    23:00 +21°C° 0 mm 2 mps 692 mmHg 45%

    1 July, Saturday

    Time Temperature Precipitation Wind Pressure Humidity
    00:00 +20°C° 0 mm 2 mps 692 mmHg 44%
    01:00 +20°C° 0 mm 2 mps 692 mmHg 45%
    02:00 +20°C° 0 mm 2 mps 692 mmHg 45%
    03:00 +19°C° 0 mm 3 mps 692 mmHg 45%
    04:00 +20°C° 0 mm 2 mps 693 mmHg 44%
    05:00 +21°C° 0 mm 2 mps 693 mmHg 42%
    06:00 +23°C° 0 mm 2 mps 694 mmHg 41%
    07:00 +25°C° 0 mm 2 mps 694 mmHg 38%
    08:00 +27°C° 0 mm 1 mps 695 mmHg 34%
    09:00 +29°C° 0 mm 1 mps 695 mmHg 31%
    10:00 +30°C° 0 mm 2 mps 695 mmHg 29%
    11:00 +31°C° 0 mm 2 mps 695 mmHg 28%
    12:00 +33°C° 0 mm 3 mps 695 mmHg 26%
    13:00 +33°C° 0 mm 3 mps 694 mmHg 27%
    14:00 +33°C° 0 mm 4 mps 694 mmHg 27%
    15:00 +34°C° 0 mm 4 mps 694 mmHg 27%
    16:00 +33°C° 0 mm 4 mps 694 mmHg 29%
    17:00 +32°C° 0 mm 4 mps 694 mmHg 32%
    18:00 +30°C° 0 mm 4 mps 694 mmHg 34%
    19:00 +27°C° 0 mm 3 mps 694 mmHg 41%
    20:00 +25°C° 0 mm 3 mps 694 mmHg 47%
    21:00 +21°C° 0 mm 2 mps 694 mmHg 53%
    22:00 +21°C° 0 mm 2 mps 694 mmHg 52%
    23:00 +20°C° 0 mm 2 mps 694 mmHg 51%

    2 July, Sunday

    Time Temperature Precipitation Wind Pressure Humidity
    00:00 +20°C° 0 mm 2 mps 694 mmHg 50%
    01:00 +20°C° 0 mm 2 mps 694 mmHg 49%
    02:00 +20°C° 0 mm 2 mps 693 mmHg 48%
    03:00 +19°C° 0 mm 2 mps 693 mmHg 46%
    04:00 +20°C° 0 mm 2 mps 694 mmHg 46%
    05:00 +21°C° 0 mm 2 mps 694 mmHg 45%
    06:00 +23°C° 0 mm 2 mps 694 mmHg 44%
    07:00 +25°C° 0 mm 2 mps 694 mmHg 39%
    08:00 +27°C° 0 mm 2 mps 694 mmHg 35%
    09:00 +29°C° 0 mm 2 mps 695 mmHg 30%
    10:00 +30°C° 0 mm 2 mps 694 mmHg 29%
    11:00 +32°C° 0 mm 2 mps 694 mmHg 28%
    12:00 +34°C° 0 mm 3 mps 693 mmHg 28%
    13:00 +34°C° 0 mm 3 mps 693 mmHg 27%
    14:00 +34°C° 0 mm 3 mps 692 mmHg 27%
    15:00 +35°C° 0 mm 3 mps 692 mmHg 27%
    16:00 +34°C° 0 mm 3 mps 692 mmHg 29%
    17:00 +33°C° 0 mm 3 mps 692 mmHg 31%
    18:00 +33°C° 0 mm 3 mps 691 mmHg 34%
    19:00 +29°C° 0 mm 2 mps 691 mmHg 38%
    20:00 +26°C° 0 mm 2 mps 691 mmHg 42%
    21:00 +23°C° 0 mm 2 mps 691 mmHg 47%
    22:00 +23°C° 0 mm 2 mps 691 mmHg 47%
    23:00 +21°C° 0 mm 2 mps 691 mmHg 48%
    Show more